FW0539 Weather Reports


time (UTC)temp
F
wind
direction
speed
knots
gust
knots
rain 1hr
in
rain 24hr
in
rain mn
in
humidity
%
barometer
mb
20260508030031 62 247 0.0 1.7 0.00 0.00 0.00 51 1000.1
20260508024532 63 247 0.0 1.7 0.00 0.00 0.00 52 1000.2
20260508023130 63 247 0.0 1.7 0.00 0.00 0.00 47 1000.1
20260508021614 64 191 0.0 3.5 0.00 0.00 0.00 46 1000.0
20260508020100 64 237 1.7 4.3 0.00 0.00 0.00 44 1000.3
20260508020059 64 246 1.7 4.3 0.00 0.00 0.00 44 1000.3
20260508014558 64 226 1.7 6.1 0.00 0.00 0.00 44 1000.3
20260508013054 65 244 1.7 5.2 0.00 0.00 0.00 43 1000.4
20260508011606 66 252 2.6 4.3 0.00 0.00 0.00 42 1000.4
20260508010050 65 259 0.9 6.1 0.00 0.00 0.00 37 1000.4
20260508004548 64 80 0.9 5.2 0.00 0.00 0.00 50 1000.5
20260508003043 64 213 2.6 6.1 0.00 0.00 0.00 54 1000.6
20260508001539 64 275 2.6 5.2 0.00 0.00 0.00 55 1000.6
20260508000036 63 207 1.7 7.8 0.00 0.00 0.00 58 1000.8
20260507234506 63 185 2.6 7.8 0.00 0.00 0.00 59 1000.9
20260507233002 63 178 3.5 7.8 0.00 0.00 0.00 61 1001.0
20260507231531 63 183 3.5 8.7 0.00 0.00 0.00 63 1001.1
20260507230029 63 261 4.3 7.8 0.00 0.00 0.00 65 1001.2
20260507224600 62 258 4.3 8.7 0.00 0.00 0.00 66 1001.3
20260507223058 63 250 4.3 8.7 0.00 0.00 0.00 65 1001.3
20260507221524 62 227 3.5 7.8 0.00 0.00 0.00 66 1001.4
20260507220022 62 251 4.3 7.0 0.00 0.00 0.00 68 1001.5
20260507214524 61 223 2.6 7.0 0.00 0.00 0.00 67 1001.7
20260507213019 61 205 3.5 6.1 0.00 0.00 0.00 68 1001.8
20260507211516 61 218 4.3 8.7 0.00 0.00 0.00 69 1002.1
20260507210013 60 193 3.5 9.6 0.00 0.00 0.00 71 1002.2
20260507204509 60 232 4.3 8.7 0.00 0.00 0.00 70 1002.3
20260507203010 59 202 3.5 7.8 0.00 0.00 0.00 72 1002.5
20260507201504 59 213 2.6 7.8 0.00 0.00 0.00 73 1002.5
20260507200001 58 103 1.7 7.0 0.00 0.00 0.00 73 1002.5
20260507194532 58 224 3.5 7.0 0.00 0.00 0.00 72 1002.6
20260507193029 57 176 4.3 7.8 0.00 0.00 0.00 75 1002.9
20260507191524 57 264 2.6 6.1 0.00 0.00 0.00 77 1003.0
20260507190021 55 207 2.6 5.2 0.00 0.00 0.00 79 1003.0
20260507184518 54 261 2.6 5.2 0.00 0.00 0.00 81 1003.1
20260507183016 53 273 3.5 7.0 0.00 0.00 0.00 83 1003.2
20260507181506 52 237 2.6 6.1 0.00 0.00 0.00 84 1003.3
20260507180005 51 267 3.5 7.8 0.00 0.00 0.00 86 1003.4
20260507174504 51 19 4.3 8.7 0.00 0.00 0.00 87 1003.4
20260507173002 52 201 2.6 5.2 0.00 0.00 0.00 86 1003.4
20260507171606 52 250 2.6 5.2 0.00 0.00 0.00 87 1003.3
20260507170056 51 189 1.7 6.1 0.00 0.00 0.00 87 1003.3
20260507164554 51 172 1.7 5.2 0.00 0.00 0.00 90 1003.3
20260507163051 50 196 0.9 4.3 0.00 0.00 0.00 91 1003.3
20260507161552 50 198 1.7 5.2 0.00 0.00 0.00 92 1003.2
20260507160054 50 213 0.9 2.6 0.00 0.00 0.00 94 1003.4
20260507154550 49 246 0.0 2.6 0.00 0.00 0.00 96 1003.3
20260507153050 48 16 0.9 2.6 0.00 0.00 0.00 96 1003.4
20260507151557 48 5 1.7 3.5 0.00 0.00 0.00 96 1003.4
20260507150058 47 11 1.7 3.5 0.00 0.00 0.00 96 1003.4
20260507144615 47 19 1.7 3.5 0.00 0.00 0.00 96 1003.2
20260507143056 47 32 1.7 3.5 0.00 0.00 0.00 96 1003.3
20260507141524 47 54 2.6 4.3 0.00 0.00 0.00 96 1003.2
20260507140024 47 22 2.6 4.3 0.00 0.00 0.00 96 1002.9
20260507134520 47 35 3.5 5.2 0.00 0.00 0.00 96 1002.8
20260507133020 47 24 2.6 5.2 0.00 0.00 0.00 96 1002.8
20260507131518 47 15 2.6 4.3 0.00 0.00 0.00 95 1002.8
20260507130018 47 38 3.5 7.0 0.00 0.00 0.00 95 1003.0
20260507124515 47 54 2.6 6.1 0.00 0.00 0.00 95 1002.9
20260507123014 47 17 2.6 7.0 0.00 0.00 0.00 95 1003.0
20260507121512 47 18 4.3 7.0 0.00 0.00 0.00 95 1003.1
20260507120010 47 16 3.5 8.7 0.00 0.00 0.00 95 1003.2
20260507114507 47 15 5.2 7.8 0.00 0.00 0.00 95 1003.3
20260507113010 47 15 4.3 7.0 0.00 0.00 0.00 95 1003.4
20260507111501 47 360 6.1 8.7 0.00 0.00 0.00 94 1003.5
20260507110059 48 14 3.5 7.0 0.00 0.00 0.00 94 1003.5
20260507104557 48 15 3.5 7.8 0.00 0.00 0.00 95 1003.5
20260507103052 48 12 3.5 7.0 0.00 0.00 0.00 95 1003.8
20260507101553 48 360 3.5 5.2 0.00 0.00 0.00 95 1003.8
20260507100050 48 286 3.5 7.0 0.00 0.00 0.00 94 1003.8
20260507094549 48 17 3.5 7.8 0.00 0.00 0.00 94 1003.8
20260507093046 48 5 3.5 7.0 0.00 0.00 0.00 93 1004.0
20260507091542 49 276 3.5 6.1 0.00 0.00 0.00 93 1004.1
20260507090039 49 261 2.6 7.0 0.00 0.00 0.00 93 1004.2
20260507084538 49 9 3.5 6.1 0.00 0.00 0.00 93 1004.3
20260507083033 49 9 3.5 7.0 0.00 0.00 0.00 92 1004.2
20260507081531 49 15 2.6 6.1 0.00 0.00 0.00 92 1004.2
20260507080032 50 277 1.7 3.5 0.00 0.00 0.00 92 1004.2
20260507074628 50 266 2.6 6.1 0.00 0.00 0.00 92 1004.2
20260507073026 50 278 2.6 5.2 0.00 0.00 0.00 92 1004.2
20260507071525 50 20 1.7 6.1 0.00 0.00 0.00 92 1004.1
20260507070022 50 360 3.5 7.8 0.00 0.00 0.00 91 1004.1
20260507064523 50 14 3.5 6.1 0.00 0.00 0.00 91 1004.1
20260507063019 50 12 0.0 2.6 0.00 0.00 0.00 92 1004.2
20260507061519 50 12 0.9 1.7 0.00 0.00 0.00 92 1004.3
20260507060021 50 244 0.0 0.9 0.00 0.00 0.00 91 1004.2
20260507054517 50 244 0.0 1.7 0.00 0.00 0.00 90 1004.3
20260507053014 50 274 0.9 1.7 0.00 0.00 0.00 90 1004.4
20260507051515 50 274 0.0 0.9 0.00 0.00 0.00 89 1004.3
20260507050014 51 274 0.0 0.9 0.00 0.00 0.00 89 1004.3
20260507044530 51 16 1.7 2.6 0.00 0.00 0.00 88 1004.4
20260507043043 52 360 1.7 4.3 0.00 0.00 0.00 87 1004.3
20260507041542 53 285 1.7 3.5 0.00 0.00 0.00 86 1004.2
20260507040013 53 22 1.7 4.3 0.00 0.00 0.00 86 1004.1
20260507034511 54 9 1.7 2.6 0.00 0.00 0.00 86 1003.9
20260507033043 54 282 0.9 2.6 0.00 0.00 0.00 85 1003.7
20260507031540 55 250 1.7 3.5 0.00 0.00 0.00 83 1003.6